星链-4317 (STARLINK-4317 )

导读

STARLINK-4317是美国太空探索技术公司(SpaceX)星链互联网卫星星座中的一员,于2022年7月11日发射升空,属星链Group 3批次卫星,依托猎鹰9号火箭入轨,运行在近地轨道,主要为全球提供低延迟高速卫星互联网服务,属于星链星座大规模组网部署中的一颗卫星,推进了星链全球覆盖的进程。

基本信息
目录编号:
53058
目录名称:
STARLINK-4317
国际标识:
2022-077R
轨道中心:
EARTH
卫星名称:
星链-4317
卫星全名:
星链-4317 (STARLINK-4317 )
卫星状态:
在轨 (已飞行1516 天)
发射日期:
2022-07-11 UTC
国别 :
美国 (US)
星等 :
--
轨道信息
数据来源 国际轨道数据
星历时间: 2026-09-04T16:00:02+0800
5小时前
查看轨道信息
半长轴: 6855.842km
偏心率: 0.0001933
轨道倾角: 97.288°
近地点辐角 107.928°
升交点赤经 62.372°
平近点角 209.586°
近地点: 476.379km
远地点: 479.031km
周期: 94.157分钟
每日圈数: 15.293666
详细信息
固有亮度:
5
最大亮度:
2.5
卫星平台:
Starlink v1.5
覆盖范围:
全球
运营商:
太空探索技术公司
运营商所在国:
美国
制造商(研发单位):
太空探索技术公司
制造商所在国:
美国
使用方式:
暂无
卫星简介
星链(Starlink)计划是由太空探索技术公司(SpaceX)提出的一个巨型低轨卫星互联网星座项目,计划在2019年至2024年间在太空搭建由约1.2万颗卫星组成的“星链”网络,其中1584颗将部署在地球上空550千米处的近地轨道,并从2020年开始工作。该卫星仍在工作。
2D轨道图
3D轨道图
轨道高度分析图
轨道倾角分析图
轨道综合分析图
查看轨道综合分析图
交会数据列表
事件ID 空间交会对象 最接近时刻(TCA) 交会距离 交会风险概率(CRP) 交会风险指数(CRI) 操作
CDM_260905-214205-305805-862221
2026-09-05T
21:42:20+0000
0.811 km
远距离
4.076807E-5 中风险 0.67
CDM_260905-152505-305805-487321
2026-09-05T
15:25:05+0000
0.974 km
远距离
2.712597E-5 中风险 0.64
CDM_260905-231805-305805-923221
2026-09-05T
23:18:11+0000
1.357 km
极远距离
8.914754E-6 低风险 0.54
CDM_260905-210505-305806-197021
2026-09-05T
21:05:01+0000
1.445 km
极远距离
7.436752E-6 低风险 0.52
CDM_260904-134505-305805-993221
2026-09-04T
13:45:06+0000
1.489 km
极远距离
4.263608E-6 低风险 0.48
CDM_260904-111305-305805-613821
2026-09-04T
11:13:18+0000
1.913 km
极远距离
3.115779E-6 低风险 0.45
CDM_260906-163205-305806-681521
2026-09-06T
16:32:03+0000
1.981 km
极远距离
2.602261E-6 低风险 0.43
CDM_260905-224705-305805-790821
2026-09-05T
22:47:44+0000
1.887 km
极远距离
2.324553E-6 低风险 0.42
CDM_260905-052905-305806-747021
2026-09-05T
05:29:58+0000
2.287 km
极远距离
2.022352E-6 低风险 0.41
CDM_260906-180605-305806-385921
2026-09-06T
18:06:56+0000
2.107 km
极远距离
1.976923E-6 低风险 0.41